Погода в Депо

Россия / Вологодская область     60°54′57″N   36°50′31″E
темп.,
°C
ветер,
м/с
пор.,
м/с
влажн.,
%
обл.,
%
осадки,
мм/ч
давл.,
гПа
погр.,
м
29 января, сб
сб2900:00−8юв2596100 0.4 1003197
03:00−9ююв2596100 0.8 1003168
06:00−9ю139799 0.5 1003132
09:00−11ю1198100 0.8 100414
12:00−9зсз1396100 0.1 1004182
15:00−10зюз119886 0.1 100411
18:00−16юв11100100 0.0 100410
21:00−18юв24100100 0.1 100249
30 января, вс
вс3000:00−15ююв310100100 0.0 999176
03:00−13юв41397100 0.1 997278
06:00−10юв51593100 0.0 994442
09:00−9юв51692100 0.1 992507
12:00−8юв61692100 0.0 992534
15:00−7юв61591100 0.0 992618
18:00−7юв61491100 0.0 993610
21:00−6юв51491100 0.1 994628
31 января, пн
пн3100:00−6юв51392100 0.1 995595
03:00−7вюв41293100 0.3 995537
06:00−7вюв41293100 0.3 996507
09:00−7вюв41193100 0.5 996492
12:00−7вюв41194100 0.3 996534
15:00−6вюв41092100 0.4 996656
18:00−6вюв41093100 0.2 996565
21:00−6вюв4109399 0.3 997497
1 февраля, вт
вт100:00−8вюв399475 0.0 997297
03:00−9вюв399480 0.1 997226
06:00−9вюв3994100 0.0 996246
09:00−8в2895100 0.1 995257
12:00−7в2694100 0.2 994267
15:00−6всв2496100 0.6 993292
18:00−9св1198100 0.3 99312
21:00−10вюв0098100 0.5 99310
2 февраля, ср
ср200:00−11юз119885 0.3 99310
03:00−11юз259787 0.5 994118
06:00−11ююз259782 0.3 996135
09:00−13ю259799 0.4 99794
12:00−10ю2594100 0.2 999226
15:00−9ю369495 0.3 1000426
18:00−11ююв2796100 0.1 1002196
21:00−12ююв269784 0.1 1003148